[[{"header":{"parameterUnit":"m.s-1","parameterCategory":1,"la1":30.2991,"la2":30.254,"lo1":-89.0895,"lo2":-89.0444,"dy":0.0017,"dx":0.0017,"nx":28,"ny":28,"refTime":"2025-12-27T09:00:00:Z","depth":0,"parameterNumber":2,"parameterNumberName":"U-component_of_WINDS"},"data":[0,0,0,0,0,0,0,0,0,0,0,0,0,0,0,0,0,0,0,0,0,0,0,0,0,0,0,0,0,0,0,0,0,0,0,0,0,0,0,0,0,0,0,0,0,0,0,0,0,0,0,0,0,0,0,0,0,0,-0.8295,-0.8295,0,-0.8283,-0.8283,-0.8283,-0.827,-0.827,-0.827,-0.8269,-0.8256,-0.8256,-0.8256,0,0,0,0,0,0,0,0,0,0,0,0,0,-0.8306,-0.8306,-0.8295,-0.8295,-0.8295,-0.8283,-0.8283,-0.8283,-0.827,-0.827,-0.8269,-0.8269,-0.8256,-0.8256,-0.8256,0,0,0,0,0,0,0,0,0,0,0,0,0,-0.8298,-0.8306,-0.8295,-0.8287,-0.8286,-0.8283,-0.8283,-0.8283,-0.827,-0.827,-0.8269,-0.8269,-0.8256,-0.8256,-0.8256,-0.8259,0,0,-0.8255,-0.8255,0,0,0,0,0,0,0,0,-0.8299,-0.8298,-0.8288,-0.8287,-0.8287,-0.8278,-0.8282,-0.8275,-0.827,-0.8276,-0.8269,-0.8269,-0.8263,-0.8262,-0.8261,-0.8258,-0.8258,-0.8255,-0.8255,-0.8254,-0.8254,0,0,0,0,0,0,0,-0.8299,-0.8298,-0.829,-0.8288,-0.8287,-0.8284,-0.8282,-0.828,-0.8271,-0.8276,-0.8275,-0.8273,-0.8263,-0.8261,-0.826,-0.8258,-0.8255,-0.8254,-0.8254,-0.8254,-0.8257,-0.8258,0,0,0,0,0,0,-0.8301,-0.8299,-0.8291,-0.829,-0.8292,-0.8284,-0.8282,-0.8281,-0.8271,-0.827,-0.8274,-0.8273,-0.8262,-0.8261,-0.826,-0.8263,-0.8254,-0.8254,-0.8254,-0.8257,-0.8257,-0.8258,0,0,0,0,0,0,-0.8302,-0.8301,-0.8291,-0.8294,-0.8293,-0.8284,-0.8282,-0.8281,-0.8279,-0.827,-0.8268,-0.8274,-0.8261,-0.826,-0.8259,-0.8262,-0.8254,-0.8254,-0.8257,-0.8257,-0.8258,-0.827,0,0,0,0,0,0,-0.8302,-0.8301,-0.8302,-0.8294,-0.8293,-0.8291,-0.8283,-0.8281,-0.8279,-0.8277,-0.8269,-0.8268,-0.8261,-0.826,-0.8259,-0.8262,-0.8254,-0.8257,-0.8257,-0.8257,-0.8269,-0.827,-0.8272,0,0,0,0,0,-0.8302,-0.8306,-0.8302,-0.8301,-0.8294,-0.8291,-0.829,-0.8283,-0.8279,-0.828,-0.8274,-0.8268,-0.8262,-0.826,-0.8259,-0.8262,-0.8256,-0.8257,-0.8257,-0.8268,-0.827,-0.8271,0,0,0,0,0,0,-0.8314,-0.8305,-0.8301,-0.8302,-0.8297,-0.8289,-0.829,-0.8285,-0.8282,-0.8281,-0.8271,-0.827,-0.827,-0.8266,-0.8263,-0.8264,-0.8258,-0.8259,-0.8267,-0.8269,-0.827,-0.827,-0.8253,0,0,0,0,0,-0.8317,-0.8316,-0.8307,-0.8309,-0.8307,-0.8299,-0.8298,-0.8293,-0.8287,-0.8285,-0.828,-0.8275,-0.8272,-0.827,-0.8267,-0.8268,-0.8266,-0.827,-0.8271,-0.8272,-0.8272,-0.8273,-0.8274,-0.826,-0.826,-0.826,0,0,-0.8322,-0.8317,-0.8317,-0.8311,-0.8307,-0.8306,-0.8298,-0.8297,-0.8295,-0.8285,-0.8284,-0.828,-0.8274,-0.8274,-0.8274,-0.827,-0.8276,-0.8273,-0.8274,-0.8274,-0.8273,-0.8275,-0.8276,-0.826,-0.826,-0.826,0,0,-0.8332,-0.8328,-0.8329,-0.8325,-0.8319,-0.8314,-0.8314,-0.8307,-0.8304,-0.8302,-0.8295,-0.8293,-0.8288,-0.8284,-0.8281,-0.829,-0.8283,-0.8289,-0.8296,-0.8296,-0.8297,-0.8298,-0.83,-0.8301,-0.8289,-0.8289,-0.8289,0,-0.8339,-0.8337,-0.833,-0.8329,-0.8327,-0.8318,-0.8319,-0.8315,-0.8309,-0.8307,-0.8304,-0.8298,-0.8293,-0.8292,-0.8294,-0.8292,-0.8292,-0.8289,-0.8297,-0.8298,-0.8299,-0.8301,-0.8302,-0.829,-0.829,-0.829,-0.829,0,-0.8346,-0.8345,-0.8346,-0.834,-0.8338,-0.8338,-0.8331,-0.8329,-0.8325,-0.832,-0.8318,-0.8313,-0.8308,-0.8308,-0.8303,-0.8306,-0.8304,-0.8299,-0.8293,-0.8301,-0.8303,-0.8304,-0.8291,-0.8291,-0.829,-0.829,0,0,-0.8361,-0.8352,-0.8353,-0.835,-0.8343,-0.8342,-0.8341,-0.8337,-0.8336,-0.8332,-0.8331,-0.8328,-0.8323,-0.832,-0.8315,-0.8315,-0.8321,-0.831,-0.831,-0.8312,-0.8324,-0.8327,-0.8328,-0.8317,-0.8318,-0.8318,-0.8324,0,-0.8369,-0.8368,-0.8362,-0.8362,-0.8361,-0.8353,-0.8352,-0.8348,-0.8343,-0.8341,-0.8336,-0.8333,-0.8328,-0.8326,-0.8326,-0.832,-0.8323,-0.832,-0.8316,-0.8316,-0.8317,-0.8329,-0.8332,-0.8339,-0.8325,-0.8325,-0.8325,0,-0.8378,-0.8374,-0.8375,-0.8368,-0.8367,-0.8367,-0.8363,-0.8361,-0.8356,-0.8352,-0.8349,-0.8343,-0.8342,-0.8337,-0.8335,-0.8333,-0.8331,-0.8328,-0.8328,-0.8326,-0.832,-0.8328,-0.8341,-0.8341,-0.8326,-0.8326,-0.8326,0,-0.8388,-0.8384,-0.8384,-0.8382,-0.8374,-0.8374,-0.8371,-0.8365,-0.8363,-0.8359,-0.8358,-0.8354,-0.8352,-0.8349,-0.8342,-0.8339,-0.834,-0.8334,-0.8337,-0.8337,-0.8337,-0.8337,-0.8349,-0.8337,-0.8337,-0.8337,-0.8337,0,-0.8397,-0.8397,-0.8388,-0.8388,-0.8388,-0.8381,-0.8382,-0.8378,-0.8373,-0.8371,-0.8364,-0.8363,-0.8354,-0.8352,-0.8347,-0.8345,-0.8345,-0.8341,-0.834,-0.8342,-0.8342,-0.834,-0.8339,-0.8337,-0.8337,-0.8337,-0.8337,0,-0.8408,-0.8403,-0.8402,-0.8395,-0.8393,-0.8393,-0.8387,-0.8386,-0.8382,-0.838,-0.8379,-0.8371,-0.8368,-0.8361,-0.8356,-0.8353,-0.8352,-0.835,-0.8354,-0.8353,-0.8356,-0.8355,-0.8366,-0.8367,-0.8355,-0.8355,-0.8355,0,-0.8414,-0.8414,-0.8407,-0.8406,-0.8403,-0.8401,-0.8399,-0.8392,-0.839,-0.8385,-0.8385,-0.8381,-0.8378,-0.8373,-0.8367,-0.8363,-0.836,-0.8364,-0.8359,-0.8361,-0.8359,-0.8359,-0.8359,-0.8365,-0.8365,-0.8365,-0.8365,0,-0.8424,-0.8422,-0.8419,-0.8416,-0.8414,-0.841,-0.8407,-0.8406,-0.8398,-0.8396,-0.8393,-0.8391,-0.8386,-0.8382,-0.8377,-0.8373,-0.8368,-0.8367,-0.8367,-0.8369,-0.8371,-0.8369,-0.8357,-0.8366,-0.8366,-0.8366,-0.8366,-0.8366,-0.8433,-0.8432,-0.8428,-0.8425,-0.8422,-0.8419,-0.8418,-0.8413,-0.841,-0.8406,-0.8402,-0.8399,-0.8394,-0.8387,-0.8384,-0.8381,-0.8378,-0.8379,-0.8379,-0.8379,-0.8379,-0.8372,-0.838,-0.838,-0.838,-0.838,-0.838,0,-0.8442,-0.8439,-0.8437,-0.8432,-0.843,-0.8426,-0.8422,-0.842,-0.8418,-0.8414,-0.8411,-0.8407,-0.8403,-0.8397,-0.8393,-0.8392,-0.8389,-0.8391,-0.8391,-0.839,-0.8382,-0.8382,-0.8393,-0.8393,-0.8393,-0.8393,-0.8393,-0.8393,-0.8447,-0.8446,-0.8443,-0.844,-0.8437,-0.8434,-0.8432,-0.8429,-0.8426,-0.8422,-0.8419,-0.8416,-0.841,-0.8406,-0.8402,-0.8401,-0.8399,-0.8401,-0.8399,-0.8392,-0.839,-0.8389,-0.8389,-0.8401,-0.8401,-0.8406,-0.8406,-0.8407]},{"header":{"parameterUnit":"m.s-1","parameterCategory":1,"la1":30.2991,"la2":30.254,"lo1":-89.0895,"lo2":-89.0444,"dy":0.0017,"dx":0.0017,"nx":28,"ny":28,"refTime":"2025-12-27T09:00:00:Z","depth":0,"parameterNumber":3,"parameterNumberName":"V-component_of_WINDS"},"data":[0,0,0,0,0,0,0,0,0,0,0,0,0,0,0,0,0,0,0,0,0,0,0,0,0,0,0,0,0,0,0,0,0,0,0,0,0,0,0,0,0,0,0,0,0,0,0,0,0,0,0,0,0,0,0,0,0,0,2.6964,2.6964,0,2.6965,2.6965,2.6964,2.6941,2.694,2.694,2.6939,2.6938,2.6938,2.6939,0,0,0,0,0,0,0,0,0,0,0,0,0,2.6943,2.6944,2.6964,2.6964,2.6964,2.6965,2.6965,2.6964,2.6941,2.694,2.6939,2.6939,2.6937,2.6938,2.6939,0,0,0,0,0,0,0,0,0,0,0,0,0,2.6949,2.6944,2.6964,2.6953,2.6952,2.6965,2.6965,2.6964,2.6941,2.694,2.6939,2.6938,2.6937,2.6938,2.6939,2.6962,0,0,2.6941,2.6942,0,0,0,0,0,0,0,0,2.6949,2.695,2.6954,2.6954,2.6952,2.6952,2.6956,2.6964,2.6941,2.6945,2.6939,2.6938,2.6943,2.6943,2.6945,2.6962,2.6962,2.6941,2.6942,2.6942,2.6942,0,0,0,0,0,0,0,2.6948,2.6949,2.6964,2.6955,2.6953,2.6947,2.6947,2.6958,2.6949,2.6945,2.6943,2.6943,2.6942,2.6944,2.6945,2.6962,2.6941,2.6942,2.6942,2.6943,2.7,2.7001,0,0,0,0,0,0,2.695,2.6949,2.6964,2.6964,2.6948,2.6948,2.6948,2.6953,2.6949,2.6948,2.6944,2.6942,2.6944,2.6944,2.6945,2.6973,2.6942,2.6943,2.6943,2.6999,2.7,2.7001,0,0,0,0,0,0,2.6949,2.6951,2.6964,2.6956,2.6958,2.695,2.6955,2.6953,2.6956,2.6949,2.6947,2.6948,2.6943,2.6944,2.6959,2.6973,2.6943,2.6944,2.6998,2.6999,2.7001,2.703,0,0,0,0,0,0,2.6949,2.6951,2.696,2.6957,2.6958,2.6978,2.6956,2.6954,2.6957,2.6955,2.6952,2.695,2.6942,2.6957,2.6959,2.6973,2.6945,2.6996,2.6998,2.7,2.7028,2.7032,2.7036,0,0,0,0,0,2.6948,2.6967,2.6961,2.6963,2.6969,2.6979,2.698,2.697,2.6959,2.6968,2.6963,2.6951,2.6971,2.6959,2.6961,2.6976,2.6995,2.6998,2.7,2.7026,2.7031,2.7036,0,0,0,0,0,0,2.6971,2.6967,2.6959,2.6978,2.6979,2.6975,2.6986,2.6976,2.6981,2.6978,2.6966,2.6965,2.6982,2.698,2.6967,2.6999,2.6981,2.6984,2.7,2.7005,2.7009,2.701,2.6945,0,0,0,0,0,2.6979,2.6988,2.6983,2.7,2.7002,2.6994,2.6998,2.6991,2.6991,2.6991,2.6988,2.6989,2.6995,2.7,2.7006,2.7027,2.7027,2.7038,2.7042,2.7046,2.7049,2.7061,2.7067,2.7009,2.7009,2.7009,0,0,2.6994,2.6993,2.6999,2.7005,2.7005,2.7015,2.6994,2.7005,2.7012,2.6993,2.7007,2.7005,2.7005,2.7024,2.7032,2.7022,2.7065,2.7049,2.7052,2.7053,2.7064,2.707,2.7075,2.7011,2.701,2.701,0,0,2.7028,2.7027,2.7042,2.7043,2.7044,2.7039,2.7043,2.7041,2.7039,2.7053,2.7039,2.7047,2.7059,2.706,2.7062,2.7097,2.7086,2.7099,2.7122,2.7134,2.7139,2.7143,2.7157,2.7162,2.7102,2.7102,2.7102,0,2.7047,2.7061,2.7051,2.7063,2.7067,2.7051,2.7066,2.7067,2.707,2.7073,2.7062,2.7078,2.7076,2.7096,2.7105,2.7106,2.7111,2.71,2.7139,2.7143,2.7147,2.716,2.7165,2.7104,2.7103,2.7103,2.7103,0,2.7085,2.7095,2.7107,2.7111,2.7116,2.713,2.7122,2.7128,2.7121,2.7117,2.7132,2.713,2.7136,2.714,2.7132,2.7159,2.7153,2.7141,2.7123,2.7154,2.7166,2.7171,2.7106,2.7105,2.7105,2.7104,0,0,2.7132,2.7132,2.7137,2.7139,2.714,2.7147,2.7161,2.7167,2.7173,2.7175,2.7187,2.7197,2.7187,2.7189,2.7182,2.7192,2.7222,2.7179,2.7179,2.7188,2.7253,2.7263,2.7269,2.7215,2.7216,2.7216,2.7253,0,2.7166,2.7189,2.7181,2.7205,2.7215,2.7201,2.7212,2.7214,2.7211,2.7219,2.7215,2.7224,2.7208,2.721,2.722,2.7217,2.7235,2.7214,2.7226,2.7226,2.7227,2.7275,2.7285,2.732,2.7258,2.7259,2.7259,0,2.7208,2.7213,2.7239,2.7239,2.7243,2.7254,2.726,2.7267,2.7269,2.7266,2.727,2.726,2.7273,2.7255,2.7274,2.7259,2.7264,2.7263,2.7264,2.7265,2.7245,2.7278,2.733,2.7336,2.7266,2.7266,2.7265,0,2.7242,2.7255,2.7273,2.7275,2.7275,2.7284,2.7284,2.7285,2.729,2.7295,2.7298,2.7304,2.7308,2.7313,2.7306,2.7293,2.7326,2.7306,2.7324,2.7324,2.7332,2.7332,2.7387,2.7334,2.7333,2.7333,2.7333,0,2.728,2.7297,2.7288,2.7299,2.7317,2.7308,2.7326,2.7325,2.7326,2.7336,2.7323,2.7333,2.7322,2.7331,2.7325,2.7343,2.7344,2.7342,2.7341,2.7344,2.7344,2.7347,2.7345,2.7335,2.7334,2.7334,2.7334,0,2.7321,2.7316,2.7335,2.7334,2.7334,2.7348,2.7347,2.7357,2.7354,2.7367,2.737,2.7364,2.7374,2.7367,2.7376,2.7373,2.7395,2.739,2.7395,2.7394,2.7413,2.7412,2.7472,2.748,2.7421,2.7421,2.7422,0,2.7347,2.7359,2.7361,2.7367,2.7369,2.7379,2.7385,2.7376,2.7382,2.7386,2.7396,2.7405,2.7412,2.7429,2.7425,2.7433,2.7428,2.7449,2.7429,2.7432,2.743,2.743,2.7431,2.7453,2.7454,2.7454,2.7455,0,2.7393,2.739,2.7399,2.7407,2.7415,2.742,2.7425,2.7431,2.7423,2.743,2.7441,2.7446,2.7457,2.7466,2.7473,2.7473,2.7463,2.7461,2.7466,2.747,2.7473,2.7473,2.7407,2.746,2.7459,2.7459,2.7458,2.7458,2.7428,2.7439,2.7442,2.7453,2.7456,2.7461,2.7471,2.7469,2.7478,2.7487,2.7481,2.7494,2.7496,2.7504,2.7506,2.7516,2.7507,2.7514,2.7516,2.7518,2.7521,2.7471,2.7517,2.7517,2.7516,2.7516,2.7516,0,2.7475,2.7476,2.7486,2.7494,2.7503,2.7493,2.7498,2.7505,2.7517,2.7521,2.7528,2.7541,2.7551,2.7548,2.7557,2.7565,2.7561,2.7568,2.7568,2.7568,2.7527,2.7523,2.7572,2.7572,2.7572,2.7572,2.7572,2.7572,2.75,2.7519,2.7517,2.7537,2.7538,2.7552,2.7556,2.7561,2.7564,2.7579,2.7587,2.7586,2.7587,2.7596,2.7604,2.7604,2.7608,2.7617,2.7614,2.7576,2.7571,2.7566,2.7562,2.7618,2.7618,2.7654,2.7655,2.7655]}]]